Little Rock, AR

7:04 AM CST on November 19, 2017 (GMT -0600)
Adams

Weather History for KLIT - July, 2004

Change the Weather History Date:

Wednesday, July 21, 2004

  Actual Average Record
Temperature  
Mean Temperature 82 °F 83 °F  
Max Temperature 90 °F 93 °F 104 °F (2006)
Min Temperature 73 °F 74 °F 61 °F (1970)
Degree Days  
Heating Degree Days 0 0  
Month to date heating degree days 0  
Since 1 June heating degree days 0  
Since 1 July heating degree days 0  
Cooling Degree Days 16 18  
Month to date cooling degree days 371  
Year to date cooling degree days 1077  
Since 1 June cooling degree days 796  
Growing Degree Days 32 (Base 50)    
Moisture  
Dew Point 72 °F    
Average Humidity 73    
Maximum Humidity 90    
Minimum Humidity 57    
Precipitation  
Precipitation 0.00 in 0.09 in 3.55 in (1936)
Month to date precipitation 2.29  
Year to date precipitation 27.84  
Snow  
Snow 0.00 in 0.00 in - ()
Month to date snowfall 0.0  
Since 1 June snowfall 0.0  
Since 1 July snowfall 0.0  
Snow Depth -    
Sea Level Pressure  
Sea Level Pressure 29.97 in    
Wind  
Wind Speed 6 mph (SSW)    
Max Wind Speed 12 mph    
Max Gust Speed -    
Visibility 6 miles    
Events      
T = Trace of Precipitation, MM = Missing Value Source: NWS Daily Summary

Daily Weather History Graph

Daily Weather History Graph

Search for Another Location

Airport or City:

Trip Planner

Search our weather history database for the weather conditions in past years. The results will help you decide how hot, cold, wet, or windy it might be!

Date:

Astronomy

Jul. 21, 2004 Rise Set
Actual Time 6:11 AM CDT 8:19 PM CDT
Civil Twilight 5:42 AM CDT 8:47 PM CDT
Nautical Twilight 5:08 AM CDT 9:22 PM CDT
Astronomical Twilight 4:30 AM CDT 9:59 PM CDT
Moon 10:01 AM CDT (7/21) 11:04 PM CDT (7/21)
Length of Visible Light 15h 04m
Length of Day
14h 07m
Waxing Crescent, 17% of the Moon is Illuminated
Jul 21
Waxing Crescent
Jul 24
First Quarter
Jul 31
Full
Aug 7
Last Quarter
Aug 15
New

Hourly Weather History & Observations

Time (CDT) Temp. Heat Index Dew Point Humidity Pressure Visibility Wind Dir Wind Speed Gust Speed Precip Events Conditions
12:53 AM 77.0 °F - 70.0 °F 79% 29.96 in 7.0 mi SW 5.8 mph - N/A   Clear
1:53 AM 75.9 °F - 70.0 °F 82% 29.96 in 7.0 mi SW 4.6 mph - N/A   Clear
2:53 AM 75.0 °F - 70.0 °F 84% 29.96 in 7.0 mi SW 4.6 mph - N/A   Partly Cloudy
3:53 AM 73.9 °F - 69.1 °F 85% 29.97 in 7.0 mi Calm Calm - N/A   Partly Cloudy
4:53 AM 73.0 °F - 69.1 °F 87% 29.97 in 7.0 mi SW 5.8 mph - N/A   Partly Cloudy
5:53 AM 73.0 °F - 69.1 °F 87% 29.98 in 6.0 mi Calm Calm - N/A   Partly Cloudy
6:53 AM 73.0 °F - 70.0 °F 90% 29.99 in 6.0 mi Calm Calm - N/A   Partly Cloudy
7:53 AM 75.9 °F - 71.1 °F 85% 30.00 in 5.0 mi Calm Calm - N/A   Haze
8:53 AM 80.1 °F 83.6 °F 71.1 °F 74% 30.00 in 6.0 mi SSW 10.4 mph - N/A   Haze
9:53 AM 82.9 °F 88.0 °F 72.0 °F 69% 30.01 in 6.0 mi SW 5.8 mph - N/A   Haze
10:53 AM 84.9 °F 90.7 °F 72.0 °F 65% 30.01 in 6.0 mi SSW 10.4 mph - N/A   Haze
11:53 AM 86.0 °F 93.0 °F 73.0 °F 65% 30.01 in 6.0 mi SSW 11.5 mph - N/A   Haze
12:53 PM 88.0 °F 95.6 °F 73.0 °F 61% 29.99 in 6.0 mi West 8.1 mph - N/A   Haze
1:53 PM 89.1 °F 97.0 °F 73.0 °F 59% 29.98 in 6.0 mi Variable 5.8 mph - N/A   Haze
2:53 PM 89.1 °F 97.0 °F 73.0 °F 59% 29.96 in 6.0 mi South 10.4 mph - N/A   Haze
3:53 PM 90.0 °F 97.9 °F 73.0 °F 57% 29.95 in 6.0 mi South 9.2 mph - N/A   Haze
4:53 PM 89.1 °F 96.0 °F 72.0 °F 57% 29.95 in 6.0 mi SSE 10.4 mph - N/A   Haze
5:53 PM 88.0 °F 93.8 °F 71.1 °F 57% 29.94 in 6.0 mi SSE 10.4 mph - N/A   Haze
6:53 PM 87.1 °F 93.6 °F 72.0 °F 61% 29.95 in 6.0 mi South 5.8 mph - N/A   Haze
7:53 PM 84.0 °F 90.2 °F 73.0 °F 69% 29.95 in 6.0 mi SSE 8.1 mph - N/A   Haze
8:53 PM 81.0 °F 85.8 °F 73.0 °F 77% 29.95 in 6.0 mi South 6.9 mph - N/A   Haze
9:53 PM 79.0 °F - 73.0 °F 82% 29.96 in 5.0 mi South 8.1 mph - N/A   Haze
10:53 PM 78.1 °F - 73.0 °F 84% 29.96 in 5.0 mi South 5.8 mph - N/A   Haze
11:53 PM 78.1 °F - 72.0 °F 81% 29.97 in 5.0 mi Calm Calm - N/A   Haze